Home > Weather > Shenyang > Past weeks

Flag for China Weather for the Past 2 Weeks in Shenyang, Liaoning, China

Now
55 °F

Overcast.


Feels Like: 54 °F
Forecast: 52 / 69 °F
Wind: 6 mph from Southwest

Location: Shenyang / Taoxian

Current Time: May 5, 2016 at 8:39:16 PM

Latest Report: May 5, 2016 at 8:00 PM


Visibility: N/A

Pressure: 29.71 "Hg

Humidity: 72%

Dew Point: 46 °F

Location of ShenyangLocation

Historic Weather in Shenyang — Graph

°F

Shenyang Temperature Yesterday

Maximum temperature yesterday: 68 °F (at 2:30 PM)
Minimum temperature yesterday: 46 °F (at 12:00 AM)
Average temperature yesterday: 55 °F

High & Low Weather Summary for the Past Weeks

 TemperatureHumidityPressure
High77 °F (May 2, 12:30 PM)100% (May 3, 3:00 AM)30.09 "Hg (May 3, 3:00 AM)
Low39 °F (Apr 23, 5:00 AM)11% (Apr 22, 12:00 PM)28.85 "Hg (May 3, 12:30 PM)
Average58 °F52%29.75 "Hg
* Reported Apr 20 7:00 PM — May 5 7:30 PM, Shenyang, Weather by CustomWeather, © 2016

Note: Actual official high and low records may vary slightly from our data, if they occured in-between our weather recording intervals... More about our weather records

Advertising

Shenyang Weather History for the Previous 24 Hours

Scroll right to see more
 ConditionsComfort  
Time TempWeatherWind HumidityBarometerVisibility
7:30 PM
Thu, May 5
55 °FOvercast.6 mph72%29.68 "HgN/A
7:00 PM55 °FOvercast.3 mph72%29.65 "HgN/A
6:30 PM55 °FLight rain. Overcast.10 mph67%29.68 "HgN/A
6:00 PM55 °FLight rain. Overcast.6 mph72%29.68 "HgN/A
5:30 PM55 °FLight rain. Overcast.6 mph77%29.68 "HgN/A
5:00 PM55 °FLight rain. Overcast.8 mph77%29.71 "HgN/A
4:30 PM55 °FLight rain. Overcast.10 mph72%29.71 "HgN/A
4:00 PM55 °FLight rain. Overcast.6 mph82%29.74 "HgN/A
3:30 PM55 °FLight rain. Overcast.10 mph77%29.77 "HgN/A
3:00 PM61 °FLight rain. Overcast.8 mph59%29.77 "HgN/A
2:30 PM64 °FLight rain. Overcast.8 mph43%29.77 "HgN/A
2:00 PM64 °FLight rain. Overcast.6 mph46%29.74 "HgN/A
1:30 PM66 °FLight rain. Overcast.6 mph49%29.77 "HgN/A
1:00 PM64 °FOvercast.6 mph64%29.77 "HgN/A
12:30 PM64 °FOvercast.3 mph64%29.77 "HgN/A
12:00 PM64 °FOvercast.8 mph60%29.80 "HgN/A
11:30 AM66 °FLight rain. Overcast.8 mph52%29.80 "HgN/A
11:00 AM66 °FLight rain. Partly sunny.8 mph52%29.80 "HgN/A
10:30 AM66 °FSunny.13 mph46%29.83 "Hg10 mi
10:00 AM68 °FSunny.17 mph43%29.83 "Hg10 mi
9:30 AM68 °FSunny.10 mph40%29.83 "Hg10 mi
9:00 AM68 °FPassing clouds.10 mph35%29.83 "HgN/A
8:30 AM68 °FPassing clouds.8 mph38%29.83 "HgN/A
8:00 AM66 °FPassing clouds.3 mph43%29.83 "HgN/A
7:30 AM63 °FPassing clouds.3 mph49%29.83 "HgN/A
7:00 AM59 °FSunny.6 mph51%29.83 "Hg10 mi
6:30 AM55 °FSunny.3 mph59%29.83 "Hg10 mi
6:00 AM52 °FSunny.6 mph62%29.83 "Hg10 mi
5:30 AM48 °FSunny.6 mph71%29.83 "Hg10 mi
5:00 AM43 °FSunny.1 mph81%29.83 "Hg10 mi
4:30 AM46 °FClear.3 mph76%29.83 "Hg10 mi
4:00 AM45 °FPassing clouds.3 mph81%29.83 "HgN/A
3:30 AM45 °FClear.No wind81%29.83 "Hg10 mi
3:00 AM46 °FClear.3 mph76%29.83 "Hg10 mi
2:30 AM45 °FClear.1 mph76%29.80 "Hg10 mi
2:00 AM46 °FClear.3 mph76%29.80 "Hg10 mi
1:30 AM46 °FClear.3 mph76%29.80 "Hg10 mi
1:00 AM48 °FClear.1 mph66%29.80 "Hg10 mi
12:30 AM48 °FClear.3 mph71%29.80 "Hg10 mi
12:00 AM50 °FClear.6 mph67%29.80 "Hg10 mi
11:30 PM
Wed, May 4
48 °FClear.6 mph76%29.80 "Hg10 mi
11:00 PM50 °FClear.3 mph71%29.77 "Hg10 mi
10:30 PM50 °FPassing clouds.3 mph67%29.77 "HgN/A
10:00 PM54 °FPassing clouds.6 mph63%29.77 "HgN/A
9:30 PM54 °FClear.3 mph63%29.77 "Hg10 mi
9:00 PM52 °FClear.1 mph72%29.77 "Hg10 mi
8:30 PM52 °FClear.1 mph67%29.77 "Hg10 mi
8:00 PM54 °FClear.3 mph58%29.74 "Hg10 mi
Weather by CustomWeather, © 2016

See weather overviewHow to use our weather pages